When you browse on this site, cookies collect data to enhance your experience and personalize the content and advertising you see.
Visit our Privacy Policy to learn more. By continuing to use the site, you agree to this use of cookies and data.
  • In Schweiz
  • Länderverzeichnis
  • Für 7 Tage
  • Wassertemperatur
  • Satellitenkarten
  • Wetterkarte
  • Widgets
  • user-avatar
    Anmelden

    Stündliche Wetter Plavni

    Heute, 17 Februar, Sonntag

    Zeit Temperatur Niederschläge Wind Luftdruck Luftfeuchtigkeit
    00:00 +4°C° 0 mm 2 m/S 769 mmHg 80%
    01:00 +4°C° 0 mm 2 m/S 769 mmHg 80%
    02:00 +3°C° 0 mm 2 m/S 769 mmHg 79%
    03:00 +3°C° 0 mm 2 m/S 768 mmHg 79%
    04:00 +3°C° 0 mm 2 m/S 768 mmHg 79%
    05:00 +3°C° 0 mm 2 m/S 768 mmHg 79%
    06:00 +3°C° 0 mm 2 m/S 768 mmHg 78%
    07:00 +3°C° 0 mm 2 m/S 768 mmHg 77%
    08:00 +3°C° 0 mm 2 m/S 768 mmHg 75%
    09:00 +5°C° 0 mm 2 m/S 768 mmHg 67%
    10:00 +7°C° 0 mm 3 m/S 768 mmHg 59%
    11:00 +9°C° 0 mm 3 m/S 768 mmHg 51%
    12:00 +11°C° 0 mm 3 m/S 767 mmHg 47%
    13:00 +12°C° 0 mm 3 m/S 767 mmHg 44%
    14:00 +13°C° 0 mm 4 m/S 766 mmHg 40%
    15:00 +12°C° 0 mm 3 m/S 766 mmHg 42%
    16:00 +12°C° 0 mm 3 m/S 766 mmHg 44%
    17:00 +11°C° 0 mm 3 m/S 765 mmHg 46%
    18:00 +10°C° 0 mm 3 m/S 765 mmHg 50%
    19:00 +9°C° 0 mm 3 m/S 765 mmHg 54%
    20:00 +8°C° 0 mm 3 m/S 765 mmHg 57%
    21:00 +8°C° 0 mm 3 m/S 765 mmHg 60%
    22:00 +8°C° 0 mm 3 m/S 765 mmHg 62%
    23:00 +7°C° 0 mm 3 m/S 765 mmHg 64%

    Morgen, 18 Februar, Montag

    Zeit Temperatur Niederschläge Wind Luftdruck Luftfeuchtigkeit
    00:00 +7°C° 0 mm 3 m/S 766 mmHg 66%
    01:00 +7°C° 0 mm 2 m/S 766 mmHg 68%
    02:00 +6°C° 0 mm 2 m/S 766 mmHg 69%
    03:00 +6°C° 0 mm 2 m/S 766 mmHg 73%
    04:00 +4°C° 0 mm 3 m/S 766 mmHg 76%
    05:00 +4°C° 0 mm 3 m/S 766 mmHg 79%
    06:00 +4°C° 0 mm 3 m/S 766 mmHg 80%
    07:00 +5°C° 0 mm 2 m/S 766 mmHg 81%
    08:00 +4°C° 0 mm 2 m/S 767 mmHg 82%
    09:00 +5°C° 0 mm 3 m/S 767 mmHg 75%
    10:00 +8°C° 0 mm 3 m/S 767 mmHg 69%
    11:00 +8°C° 0 mm 4 m/S 767 mmHg 63%
    12:00 +10°C° 0 mm 4 m/S 767 mmHg 60%
    13:00 +11°C° 0 mm 4 m/S 767 mmHg 57%
    14:00 +11°C° 0 mm 4 m/S 766 mmHg 54%
    15:00 +11°C° 0 mm 3 m/S 766 mmHg 56%
    16:00 +10°C° 0 mm 3 m/S 766 mmHg 58%
    17:00 +10°C° 0 mm 3 m/S 766 mmHg 60%
    18:00 +9°C° 0 mm 2 m/S 766 mmHg 66%
    19:00 +8°C° 0 mm 2 m/S 766 mmHg 71%
    20:00 +7°C° 0 mm 2 m/S 767 mmHg 77%
    21:00 +7°C° 0 mm 1 m/S 767 mmHg 78%
    22:00 +7°C° 0 mm 1 m/S 767 mmHg 80%
    23:00 +6°C° 0 mm 1 m/S 767 mmHg 82%

    übermorgen, 19 Februar, Dienstag

    Zeit Temperatur Niederschläge Wind Luftdruck Luftfeuchtigkeit
    00:00 +6°C° 0 mm 1 m/S 767 mmHg 82%
    01:00 +6°C° 0 mm 1 m/S 768 mmHg 83%
    02:00 +5°C° 0 mm 1 m/S 768 mmHg 84%
    03:00 +5°C° 0 mm 1 m/S 768 mmHg 85%
    04:00 +5°C° 0 mm 1 m/S 767 mmHg 85%
    05:00 +4°C° 0 mm 1 m/S 767 mmHg 86%
    06:00 +3°C° 0 mm 2 m/S 768 mmHg 85%
    07:00 +3°C° 0 mm 2 m/S 768 mmHg 84%
    08:00 +3°C° 0 mm 2 m/S 768 mmHg 84%
    09:00 +5°C° 0 mm 2 m/S 768 mmHg 76%
    10:00 +5°C° 0 mm 3 m/S 768 mmHg 68%
    11:00 +8°C° 0 mm 3 m/S 768 mmHg 60%
    12:00 +9°C° 0 mm 3 m/S 768 mmHg 57%
    13:00 +10°C° 0 mm 3 m/S 767 mmHg 55%
    14:00 +10°C° 0 mm 3 m/S 767 mmHg 52%
    15:00 +10°C° 0 mm 4 m/S 767 mmHg 54%
    16:00 +8°C° 0 mm 4 m/S 766 mmHg 57%
    17:00 +8°C° 0 mm 5 m/S 766 mmHg 59%
    18:00 +7°C° 0 mm 5 m/S 766 mmHg 64%
    19:00 +6°C° 0 mm 4 m/S 766 mmHg 70%
    20:00 +4°C° 0 mm 4 m/S 766 mmHg 75%
    21:00 +4°C° 0 mm 4 m/S 766 mmHg 78%
    22:00 +4°C° 0 mm 4 m/S 766 mmHg 81%
    23:00 +4°C° 0 mm 4 m/S 766 mmHg 84%

    20 Februar, Mittwoch

    Zeit Temperatur Niederschläge Wind Luftdruck Luftfeuchtigkeit
    00:00 +4°C° 0 mm 4 m/S 766 mmHg 86%
    01:00 +4°C° 0 mm 3 m/S 765 mmHg 89%
    02:00 +3°C° 0 mm 3 m/S 765 mmHg 92%
    03:00 +3°C° 0 mm 3 m/S 765 mmHg 92%
    04:00 +3°C° 0 mm 3 m/S 764 mmHg 93%
    05:00 +3°C° 0 mm 3 m/S 764 mmHg 94%
    06:00 +3°C° 0 mm 3 m/S 764 mmHg 94%
    07:00 +4°C° 0 mm 2 m/S 764 mmHg 94%
    08:00 +4°C° 0 mm 2 m/S 764 mmHg 94%
    09:00 +6°C° 0 mm 2 m/S 764 mmHg 85%
    10:00 +8°C° 0 mm 2 m/S 764 mmHg 75%
    11:00 +10°C° 0 mm 3 m/S 764 mmHg 65%
    12:00 +11°C° 0 mm 3 m/S 764 mmHg 60%
    13:00 +12°C° 0 mm 3 m/S 764 mmHg 54%
    14:00 +12°C° 0 mm 3 m/S 764 mmHg 48%
    15:00 +12°C° 0 mm 3 m/S 764 mmHg 51%
    16:00 +11°C° 0 mm 3 m/S 764 mmHg 53%
    17:00 +11°C° 0 mm 3 m/S 764 mmHg 55%
    18:00 +10°C° 0 mm 2 m/S 764 mmHg 61%
    19:00 +8°C° 0 mm 2 m/S 764 mmHg 67%
    20:00 +8°C° 0 mm 1 m/S 765 mmHg 73%
    21:00 +8°C° 0 mm 1 m/S 765 mmHg 74%
    22:00 +8°C° 0 mm 1 m/S 765 mmHg 74%
    23:00 +7°C° 0 mm 1 m/S 765 mmHg 75%

    21 Februar, Donnerstag

    Zeit Temperatur Niederschläge Wind Luftdruck Luftfeuchtigkeit
    00:00 +7°C° 0 mm 1 m/S 765 mmHg 75%
    01:00 +6°C° 0 mm 2 m/S 765 mmHg 76%
    02:00 +6°C° 0 mm 2 m/S 765 mmHg 77%
    03:00 +5°C° 0 mm 2 m/S 765 mmHg 79%
    04:00 +5°C° 0 mm 2 m/S 766 mmHg 81%
    05:00 +4°C° 0 mm 2 m/S 766 mmHg 83%
    06:00 +5°C° 0 mm 2 m/S 766 mmHg 81%
    07:00 +6°C° 0 mm 1 m/S 766 mmHg 79%
    08:00 +6°C° 0 mm 1 m/S 766 mmHg 77%
    09:00 +7°C° 0 mm 2 m/S 767 mmHg 70%
    10:00 +8°C° 0 mm 2 m/S 767 mmHg 63%
    11:00 +9°C° 0 mm 2 m/S 767 mmHg 55%
    12:00 +10°C° 0 mm 3 m/S 766 mmHg 53%
    13:00 +11°C° 0 mm 3 m/S 766 mmHg 50%
    14:00 +12°C° 0 mm 4 m/S 766 mmHg 48%
    15:00 +12°C° 0 mm 3 m/S 766 mmHg 48%
    16:00 +12°C° 0 mm 3 m/S 765 mmHg 48%
    17:00 +11°C° 0 mm 3 m/S 765 mmHg 48%
    18:00 +12°C° 0 mm 2 m/S 766 mmHg 51%
    19:00 +10°C° 0 mm 2 m/S 766 mmHg 54%
    20:00 +9°C° 0 mm 2 m/S 766 mmHg 57%
    21:00 +8°C° 0 mm 2 m/S 766 mmHg 60%
    22:00 +8°C° 0 mm 2 m/S 766 mmHg 62%
    23:00 +7°C° 0 mm 2 m/S 766 mmHg 64%

    22 Februar, Freitag

    Zeit Temperatur Niederschläge Wind Luftdruck Luftfeuchtigkeit
    00:00 +7°C° 0 mm 2 m/S 766 mmHg 66%
    01:00 +7°C° 0 mm 2 m/S 765 mmHg 68%
    02:00 +6°C° 0 mm 2 m/S 765 mmHg 70%
    03:00 +6°C° 0 mm 2 m/S 765 mmHg 72%
    04:00 +6°C° 0 mm 2 m/S 764 mmHg 73%
    05:00 +6°C° 0 mm 2 m/S 764 mmHg 75%
    06:00 +6°C° 0.1 mm 2 m/S 763 mmHg 76%
    07:00 +6°C° 0.1 mm 2 m/S 763 mmHg 77%
    08:00 +6°C° 0.1 mm 2 m/S 763 mmHg 78%
    09:00 +7°C° 0.3 mm 2 m/S 762 mmHg 75%
    10:00 +8°C° 0.3 mm 2 m/S 762 mmHg 72%
    11:00 +8°C° 0.3 mm 3 m/S 761 mmHg 70%
    12:00 +9°C° 0.2 mm 3 m/S 761 mmHg 68%
    13:00 +9°C° 0.2 mm 3 m/S 760 mmHg 67%
    14:00 +8°C° 0.2 mm 4 m/S 760 mmHg 65%
    15:00 +8°C° 0.1 mm 4 m/S 759 mmHg 66%
    16:00 +8°C° 0.1 mm 4 m/S 759 mmHg 68%
    17:00 +7°C° 0.1 mm 4 m/S 759 mmHg 69%
    18:00 +8°C° 0 mm 3 m/S 759 mmHg 73%
    19:00 +7°C° 0 mm 3 m/S 759 mmHg 78%
    20:00 +5°C° 0 mm 3 m/S 759 mmHg 82%
    21:00 +5°C° 0 mm 4 m/S 760 mmHg 81%
    22:00 +3°C° 0 mm 6 m/S 761 mmHg 80%
    23:00 +1°C° 0 mm 8 m/S 762 mmHg 79%
    Mehr zeigen